This demonstration page uses our WeatherBlox Daily Observations layout. Learn more.

Left ArrowRight Arrow

Hourly Observations for March 30, 2018

Temp ( °F °C ) Dew Point ( °F °C ) Humidity (%) Winds ( mph kmh ) Pressure ( in mb ) Visibility ( mi km ) Precip ( " mm )
12:54 am 00:54 Cloudy 37 2.8 27 -2.8 67 67 NNE 5 7 30.29 1026 10 16 0.00 0.00
1:54 am 01:54 Cloudy 37 2.8 27 -2.8 67 67 N 5 7 30.29 1026 10 16 0.00 0.00
2:54 am 02:54 Cloudy 37 2.8 27 -2.8 67 67 W 3 6 30.30 1026 10 16 0.00 0.00
3:54 am 03:54 Clear 31 -0.6 24 -4.4 76 76 Calm 30.29 1026 10 16 0.00 0.00
4:54 am 04:54 Mostly Clear 28 -2.2 24 -4.4 85 85 Calm 30.30 1026 10 16 0.00 0.00
5:54 am 05:54 Mostly Cloudy 26 -3.3 23 -5 88 88 NW 3 6 30.32 1027 10 16 0.00 0.00
6:54 am 06:54 Cloudy 27 -2.8 24 -4.4 89 89 N 3 6 30.33 1027 10 16 0.00 0.00
7:54 am 07:54 Partly Cloudy 30 -1.1 26 -3.3 85 85 Calm 30.33 1027 10 16 0.00 0.00
8:54 am 08:54 Sunny 34 1.1 29 -1.7 82 82 SSW 3 6 30.33 1027 10 16 0.00 0.00
9:54 am 09:54 Sunny 40 4.4 30 -1.1 68 68 S 6 9 30.32 1027 10 16 0.00 0.00
10:54 am 10:54 Sunny 46 7.8 28 -2.2 50 50 SSW 10 17 30.30 1026 10 16 0.00 0.00
11:54 am 11:54 Sunny 50 10 27 -2.8 41 41 SW 15 24 30.29 1026 10 16 0.00 0.00
12:54 pm 12:54 Mostly Sunny 52 11.1 28 -2.2 40 40 WSW 16 26 30.26 1025 10 16 0.00 0.00
1:54 pm 13:54 Sunny 55 12.8 30 -1.1 38 38 WSW 12 19 30.22 1023 10 16 0.00 0.00
2:54 pm 14:54 Sunny 57 13.9 31 -0.6 37 37 SW 10 17 30.16 1022 10 16 0.00 0.00
3:54 pm 15:54 Sunny 59 15 29 -1.7 32 32 WSW 14 22 30.14 1021 10 16 0.00 0.00
4:54 pm 16:54 Sunny 60 15.6 29 -1.7 31 31 SSW 17 28 30.10 1019 10 16 0.00 0.00
5:54 pm 17:54 Sunny 60 15.6 26 -3.3 27 27 SW 17 28 30.06 1018 10 16 0.00 0.00
6:54 pm 18:54 Sunny 57 13.9 28 -2.2 33 33 S 13 20 30.04 1017 10 16 0.00 0.00
7:54 pm 19:54 Clear 54 12.2 29 -1.7 38 38 S 15 24 30.00 1016 10 16 0.00 0.00
8:54 pm 20:54 Mostly Clear 53 11.7 29 -1.7 40 40 S 18 30 29.97 1015 10 16 0.00 0.00
9:54 pm 21:54 Mostly Cloudy 53 11.7 29 -1.7 40 40 S 23 37 29.94 1014 10 16 0.00 0.00
10:54 pm 22:54 Mostly Clear 51 10.6 30 -1.1 44 44 S 17 28 29.91 1013 10 16 0.00 0.00
11:54 pm 23:54 Clear 52 11.1 30 -1.1 43 43 S 23 37 29.88 1012 10 16 0.00 0.00

Powered by AerisWeather